sat.trackr.live / text

‹ back to catalog

GLOBALSTAR M074

NORAD 37189 · 2010-054B

PAYLOAD ACTIVE UNKNOWN

§ Identity

Operator
Country
GLOB
Launch date
2010-10-19
Launch site
TYMSC
Launch vehicle
Mass (kg)
RCS (m²)
4.88

Purposes: comms

External: N2YO · Heavens-Above · Gunter

§ Orbital elements

Epoch: 2026-09-20T02:15:37.024992Z

Period
114.08 min
Inclination
52.0010°
Eccentricity
0.0000567
Mean motion
12.62263195 rev/d
Perigee alt
1,413.2 km
Apogee alt
1,414.1 km
Semi-major
7,791.8 km
B*
1.5479e-5
RAAN
179.0114°
Arg perigee
53.9641°
Mean anomaly
319.9243°
Rev number
73,514

§ Raw data

GLOBALSTAR M0741 37189U 10054B   26263.09417853 -.00000101  00000+0  15479-4 0  99962 37189  52.0010 179.0114 0000567  53.9641 319.9243 12.62263195735145

JSON: /api/v1/satellites/37189 · /tle

For live sub-satellite position, see the globe view (requires WebGL).

§ Visibility from observer

Set your observer location to see the next 7 days of passes ≥ 10°. The values pass through the URL so the page stays shareable.

No JS? Fill the form by hand. The geolocation button needs JavaScript.